QPF
0.00 0.00 0.00 0.00 0.00 0.00 0.00 0.00 0.00 0.00 0.00 0.00 0.00 0.00 0.00 0.00 0.00 0.01 0.02 0.03 0.04 0.07 0.09 0.08 0.09 0.10 0.14 0.14 0.15 0.19 0.22 0.18 0.14 0.12 0.11 0.10 0.08 0.03 0.01 0.00 0.00 0.00 0.00 0.00
0.00 0.00 0.00 0.00 0.00 0.00 0.00 0.00 0.00 0.00 0.00 0.00 0.00 0.00 0.00 0.00 0.00 0.00 0.01 0.02 0.03 0.04 0.07 0.08 0.08 0.08 0.11 0.12 0.15 0.16 0.19 0.19 0.15 0.13 0.13 0.10 0.07 0.03 0.01 0.00 0.00 0.00 0.00 0.00
0.00 0.00 0.00 0.00 0.00 0.00 0.00 0.00 0.00 0.00 0.00 0.00 0.01 0.01 0.00 0.00 0.00 0.00 0.00 0.00 0.01 0.02 0.06 0.09 0.10 0.10 0.11 0.13 0.13 0.12 0.15 0.17 0.15 0.14 0.10 0.08 0.07 0.05 0.02 0.02 0.01 0.00 0.00 0.00
0.00 0.00 0.00 0.00 0.00 0.00 0.00 0.00 0.00 0.00 0.00 0.01 0.01 0.02 0.01 0.00 0.01 0.01 0.00 0.00 0.01 0.02 0.05 0.09 0.09 0.09 0.10 0.10 0.11 0.15 0.18 0.15 0.12 0.11 0.10 0.07 0.05 0.05 0.04 0.02 0.01 0.01 0.00 0.00
0.00 0.00 0.00 0.00 0.00 0.00 0.00 0.00 0.00 0.00 0.01 0.02 0.05 0.05 0.01 0.01 0.01 0.00 0.00 0.00 0.01 0.02 0.04 0.07 0.08 0.08 0.08 0.09 0.12 0.15 0.17 0.16 0.10 0.10 0.10 0.08 0.05 0.03 0.03 0.02 0.02 0.01 0.01 0.00
0.00 0.00 0.00 0.00 0.00 0.00 0.00 0.00 0.00 0.00 0.02 0.08 0.08 0.05 0.03 0.03 0.01 0.00 0.00 0.01 0.01 0.01 0.02 0.03 0.06 0.08 0.08 0.08 0.12 0.14 0.13 0.13 0.10 0.09 0.07 0.06 0.05 0.04 0.04 0.03 0.03 0.01 0.01 0.00
0.00 0.00 0.00 0.00 0.00 0.00 0.00 0.00 0.01 0.03 0.07 0.09 0.04 0.02 0.02 0.02 0.01 0.00 0.00 0.00 0.01 0.01 0.01 0.02 0.04 0.08 0.08 0.06 0.07 0.10 0.09 0.11 0.10 0.09 0.05 0.04 0.05 0.04 0.03 0.02 0.02 0.01 0.00 0.00
0.00 0.01 0.01 0.01 0.00 0.00 0.00 0.00 0.01 0.02 0.02 0.02 0.02 0.01 0.01 0.00 0.00 0.00 0.00 0.00 0.00 0.00 0.00 0.01 0.02 0.06 0.07 0.06 0.06 0.06 0.06 0.08 0.09 0.06 0.05 0.05 0.04 0.02 0.01 0.01 0.01 0.01 0.00 0.00
0.00 0.01 0.01 0.01 0.00 0.00 0.00 0.00 0.00 0.00 0.00 0.01 0.03 0.03 0.03 0.01 0.00 0.00 0.00 0.00 0.00 0.00 0.00 0.00 0.01 0.04 0.06 0.05 0.05 0.05 0.07 0.07 0.07 0.05 0.04 0.04 0.03 0.02 0.02 0.02 0.01 0.00 0.00 0.00
0.00 0.00 0.01 0.00 0.00 0.00 0.00 0.00 0.00 0.00 0.01 0.02 0.04 0.07 0.09 0.03 0.01 0.01 0.00 0.00 0.00 0.00 0.00 0.00 0.00 0.01 0.02 0.03 0.05 0.05 0.05 0.07 0.07 0.05 0.03 0.02 0.02 0.02 0.02 0.02 0.01 0.00 0.00 0.00
0.00 0.00 0.00 0.00 0.00 0.00 0.00 0.00 0.00 0.00 0.00 0.01 0.04 0.07 0.05 0.02 0.02 0.02 0.01 0.00 0.00 0.00 0.00 0.00 0.00 0.00 0.01 0.02 0.03 0.03 0.03 0.06 0.06 0.04 0.03 0.03 0.02 0.01 0.02 0.01 0.01 0.01 0.01 0.00
0.00 0.00 0.00 0.01 0.01 0.01 0.01 0.01 0.01 0.01 0.01 0.01 0.03 0.04 0.03 0.03 0.03 0.02 0.01 0.00 0.00 0.01 0.00 0.00 0.00 0.00 0.01 0.02 0.02 0.02 0.02 0.05 0.03 0.02 0.02 0.03 0.02 0.02 0.02 0.01 0.01 0.01 0.01 0.01
0.00 0.00 0.00 0.02 0.05 0.05 0.03 0.01 0.01 0.01 0.01 0.01 0.03 0.03 0.02 0.02 0.02 0.01 0.01 0.00 0.00 0.00 0.00 0.00 0.00 0.00 0.00 0.00 0.01 0.01 0.01 0.02 0.02 0.01 0.02 0.02 0.02 0.02 0.02 0.02 0.02 0.01 0.01 0.01
0.00 0.00 0.01 0.03 0.07 0.09 0.06 0.02 0.01 0.01 0.01 0.01 0.02 0.04 0.05 0.06 0.04 0.03 0.01 0.00 0.00 0.00 0.00 0.00 0.00 0.00 0.00 0.00 0.00 0.00 0.01 0.01 0.01 0.01 0.03 0.02 0.02 0.02 0.02 0.01 0.01 0.01 0.01 0.01
0.00 0.00 0.00 0.00 0.02 0.03 0.03 0.02 0.02 0.01 0.01 0.01 0.02 0.05 0.08 0.15 0.08 0.03 0.01 0.00 0.00 0.00 0.00 0.00 0.00 0.01 0.01 0.00 0.00 0.00 0.00 0.00 0.01 0.02 0.03 0.03 0.03 0.03 0.03 0.03 0.03 0.02 0.02 0.02
0.00 0.00 0.00 0.00 0.01 0.02 0.02 0.01 0.01 0.01 0.00 0.00 0.02 0.07 0.10 0.10 0.06 0.03 0.02 0.01 0.00 0.00 0.00 0.01 0.00 0.00 0.01 0.01 0.01 0.01 0.01 0.01 0.02 0.04 0.04 0.05 0.06 0.06 0.06 0.06 0.05 0.05 0.04 0.03
0.02 0.01 0.01 0.01 0.02 0.01 0.01 0.01 0.01 0.00 0.00 0.00 0.02 0.05 0.05 0.05 0.04 0.04 0.02 0.01 0.00 0.00 0.01 0.01 0.01 0.01 0.02 0.02 0.02 0.01 0.01 0.03 0.04 0.06 0.07 0.09 0.11 0.12 0.11 0.10 0.08 0.06 0.05 0.04
0.06 0.02 0.01 0.02 0.04 0.04 0.02 0.01 0.01 0.00 0.00 0.01 0.01 0.01 0.01 0.02 0.01 0.01 0.00 0.00 0.00 0.01 0.01 0.02 0.02 0.02 0.02 0.04 0.04 0.04 0.05 0.07 0.10 0.11 0.11 0.15 0.18 0.19 0.18 0.16 0.11 0.09 0.08 0.07
0.06 0.03 0.02 0.03 0.05 0.04 0.05 0.04 0.02 0.01 0.02 0.02 0.02 0.01 0.01 0.00 0.01 0.02 0.02 0.01 0.00 0.00 0.01 0.02 0.03 0.05 0.05 0.05 0.08 0.10 0.11 0.14 0.17 0.18 0.16 0.19 0.25 0.29 0.27 0.21 0.16 0.13 0.10 0.08
0.08 0.04 0.03 0.02 0.05 0.07 0.07 0.09 0.06 0.04 0.07 0.03 0.01 0.01 0.02 0.06 0.12 0.11 0.05 0.02 0.01 0.01 0.01 0.01 0.02 0.03 0.05 0.07 0.07 0.08 0.12 0.16 0.22 0.24 0.20 0.21 0.25 0.29 0.28 0.22 0.18 0.17 0.15 0.11
0.06 0.06 0.03 0.03 0.06 0.05 0.05 0.05 0.05 0.07 0.09 0.03 0.04 0.06 0.05 0.11 0.12 0.08 0.03 0.02 0.01 0.01 0.00 0.01 0.01 0.01 0.02 0.03 0.05 0.06 0.09 0.12 0.14 0.19 0.21 0.22 0.24 0.24 0.22 0.22 0.21 0.18 0.16 0.14
0.11 0.07 0.06 0.05 0.09 0.09 0.06 0.05 0.06 0.11 0.05 0.03 0.02 0.03 0.02 0.03 0.03 0.02 0.01 0.01 0.01 0.01 0.01 0.01 0.02 0.02 0.04 0.04 0.04 0.05 0.06 0.07 0.07 0.08 0.10 0.12 0.15 0.15 0.13 0.13 0.13 0.11 0.09 0.09
0.20 0.13 0.10 0.08 0.11 0.09 0.04 0.04 0.04 0.02 0.01 0.01 0.01 0.00 0.01 0.02 0.01 0.01 0.01 0.01 0.01 0.01 0.01 0.01 0.01 0.02 0.04 0.05 0.06 0.07 0.09 0.09 0.09 0.08 0.07 0.07 0.09 0.12 0.10 0.09 0.08 0.08 0.07 0.06
0.24 0.13 0.08 0.08 0.10 0.08 0.05 0.04 0.02 0.01 0.02 0.00 0.01 0.01 0.02 0.01 0.01 0.02 0.01 0.01 0.01 0.01 0.00 0.00 0.01 0.01 0.01 0.02 0.03 0.04 0.05 0.06 0.07 0.08 0.09 0.09 0.07 0.07 0.06 0.06 0.06 0.06 0.05 0.05
0.09 0.07 0.07 0.10 0.10 0.08 0.08 0.08 0.06 0.02 0.01 0.01 0.01 0.02 0.03 0.03 0.02 0.03 0.02 0.02 0.01 0.01 0.00 0.00 0.01 0.00 0.00 0.00 0.01 0.01 0.02 0.02 0.03 0.05 0.05 0.05 0.05 0.04 0.04 0.04 0.03 0.03 0.02 0.02
0.03 0.02 0.03 0.09 0.07 0.06 0.08 0.07 0.04 0.02 0.02 0.01 0.01 0.02 0.02 0.03 0.03 0.05 0.04 0.03 0.02 0.01 0.01 0.01 0.01 0.01 0.01 0.01 0.01 0.02 0.03 0.04 0.05 0.06 0.06 0.05 0.04 0.03 0.03 0.02 0.02 0.01 0.01 0.00
MSLP
1008.19 1008.36 1008.30 1008.09 1007.82 1007.56 1007.37 1007.26 1007.20 1007.13 1007.01 1006.79 1006.46 1006.06 1005.66 1005.34 1005.19 1005.27 1005.61 1006.19 1006.95 1007.81 1008.68 1009.49 1010.17 1010.74 1011.20 1011.61 1012.01 1012.44 1012.94 1013.48 1014.05 1014.60 1015.08 1015.47 1015.75 1015.93 1016.04 1016.13 1016.23 1016.37 1016.57 1016.81
1008.60 1008.56 1008.29 1007.91 1007.53 1007.25 1007.11 1007.12 1007.22 1007.33 1007.35 1007.22 1006.91 1006.47 1005.96 1005.50 1005.21 1005.18 1005.45 1006.02 1006.83 1007.78 1008.76 1009.68 1010.46 1011.08 1011.56 1011.94 1012.30 1012.68 1013.13 1013.63 1014.18 1014.73 1015.22 1015.61 1015.88 1016.05 1016.13 1016.18 1016.24 1016.35 1016.53 1016.78
1008.73 1008.48 1008.02 1007.50 1007.06 1006.81 1006.78 1006.98 1007.30 1007.62 1007.82 1007.80 1007.54 1007.06 1006.45 1005.85 1005.40 1005.23 1005.40 1005.91 1006.71 1007.70 1008.75 1009.75 1010.59 1011.26 1011.75 1012.12 1012.44 1012.77 1013.17 1013.64 1014.17 1014.71 1015.20 1015.61 1015.89 1016.05 1016.12 1016.15 1016.18 1016.27 1016.44 1016.70
1008.49 1008.06 1007.46 1006.87 1006.44 1006.28 1006.43 1006.86 1007.43 1008.00 1008.40 1008.53 1008.32 1007.82 1007.11 1006.36 1005.75 1005.41 1005.44 1005.85 1006.61 1007.59 1008.67 1009.70 1010.59 1011.29 1011.79 1012.15 1012.43 1012.71 1013.06 1013.49 1013.99 1014.53 1015.03 1015.45 1015.75 1015.93 1016.01 1016.03 1016.06 1016.13 1016.30 1016.56
1007.91 1007.35 1006.69 1006.09 1005.74 1005.75 1006.12 1006.81 1007.65 1008.47 1009.08 1009.34 1009.19 1008.66 1007.87 1006.98 1006.20 1005.69 1005.56 1005.86 1006.52 1007.46 1008.53 1009.58 1010.49 1011.20 1011.71 1012.05 1012.30 1012.54 1012.84 1013.23 1013.70 1014.22 1014.73 1015.17 1015.50 1015.71 1015.81 1015.84 1015.88 1015.95 1016.12 1016.38
1007.08 1006.47 1005.82 1005.30 1005.10 1005.30 1005.92 1006.86 1007.96 1008.99 1009.77 1010.14 1010.04 1009.49 1008.62 1007.61 1006.68 1006.02 1005.74 1005.91 1006.48 1007.35 1008.38 1009.42 1010.33 1011.05 1011.55 1011.88 1012.11 1012.31 1012.57 1012.91 1013.35 1013.85 1014.35 1014.81 1015.16 1015.40 1015.54 1015.61 1015.66 1015.75 1015.91 1016.17
1006.19 1005.60 1005.03 1004.65 1004.63 1005.05 1005.89 1007.04 1008.33 1009.52 1010.41 1010.85 1010.76 1010.19 1009.25 1008.15 1007.11 1006.32 1005.92 1005.98 1006.45 1007.25 1008.24 1009.24 1010.14 1010.86 1011.36 1011.68 1011.89 1012.07 1012.29 1012.60 1013.00 1013.47 1013.96 1014.42 1014.80 1015.08 1015.25 1015.36 1015.43 1015.54 1015.71 1015.96
1005.41 1004.91 1004.48 1004.28 1004.45 1005.06 1006.06 1007.36 1008.74 1009.99 1010.91 1011.35 1011.24 1010.63 1009.66 1008.50 1007.39 1006.52 1006.05 1006.02 1006.42 1007.15 1008.08 1009.05 1009.93 1010.64 1011.14 1011.47 1011.67 1011.84 1012.03 1012.31 1012.68 1013.13 1013.61 1014.07 1014.46 1014.77 1014.97 1015.11 1015.22 1015.35 1015.52 1015.77
1004.88 1004.52 1004.26 1004.25 1004.60 1005.34 1006.44 1007.76 1009.14 1010.34 1011.19 1011.55 1011.39 1010.74 1009.74 1008.57 1007.45 1006.57 1006.06 1005.99 1006.33 1007.01 1007.88 1008.81 1009.66 1010.36 1010.87 1011.21 1011.43 1011.60 1011.80 1012.06 1012.42 1012.84 1013.30 1013.76 1014.16 1014.48 1014.72 1014.89 1015.03 1015.17 1015.36 1015.61
1004.62 1004.44 1004.38 1004.55 1005.04 1005.85 1006.94 1008.20 1009.44 1010.48 1011.18 1011.42 1011.16 1010.47 1009.47 1008.33 1007.26 1006.42 1005.93 1005.85 1006.16 1006.79 1007.60 1008.48 1009.29 1009.98 1010.49 1010.85 1011.11 1011.31 1011.53 1011.81 1012.16 1012.58 1013.03 1013.47 1013.87 1014.20 1014.46 1014.66 1014.83 1015.00 1015.20 1015.44
1004.58 1004.59 1004.73 1005.06 1005.64 1006.46 1007.46 1008.55 1009.57 1010.38 1010.85 1010.92 1010.56 1009.84 1008.87 1007.81 1006.84 1006.09 1005.67 1005.62 1005.91 1006.48 1007.23 1008.04 1008.80 1009.45 1009.97 1010.36 1010.66 1010.91 1011.18 1011.49 1011.87 1012.29 1012.73 1013.16 1013.55 1013.89 1014.16 1014.38 1014.58 1014.77 1014.99 1015.25
1004.60 1004.81 1005.14 1005.61 1006.24 1007.02 1007.88 1008.74 1009.49 1010.01 1010.24 1010.12 1009.66 1008.94 1008.04 1007.11 1006.28 1005.66 1005.34 1005.33 1005.61 1006.13 1006.79 1007.50 1008.19 1008.79 1009.30 1009.71 1010.05 1010.38 1010.71 1011.07 1011.48 1011.91 1012.35 1012.77 1013.16 1013.48 1013.76 1014.00 1014.22 1014.44 1014.69 1014.97
1004.55 1004.95 1005.44 1006.02 1006.68 1007.39 1008.09 1008.70 1009.17 1009.41 1009.40 1009.12 1008.60 1007.90 1007.11 1006.35 1005.70 1005.25 1005.04 1005.09 1005.36 1005.80 1006.35 1006.95 1007.53 1008.05 1008.53 1008.94 1009.33 1009.72 1010.11 1010.54 1010.98 1011.43 1011.87 1012.28 1012.64 1012.96 1013.23 1013.48 1013.72 1013.97 1014.25 1014.56
1004.33 1004.89 1005.52 1006.20 1006.88 1007.51 1008.04 1008.43 1008.63 1008.63 1008.43 1008.03 1007.50 1006.88 1006.24 1005.68 1005.24 1004.97 1004.89 1004.99 1005.24 1005.60 1006.03 1006.47 1006.92 1007.35 1007.76 1008.16 1008.57 1009.00 1009.46 1009.93 1010.41 1010.87 1011.30 1011.69 1012.03 1012.32 1012.58 1012.83 1013.09 1013.37 1013.69 1014.03
1003.95 1004.64 1005.39 1006.13 1006.81 1007.37 1007.76 1007.96 1007.96 1007.78 1007.44 1006.99 1006.49 1005.99 1005.56 1005.22 1005.01 1004.93 1004.98 1005.13 1005.36 1005.63 1005.91 1006.20 1006.50 1006.80 1007.12 1007.49 1007.89 1008.35 1008.84 1009.35 1009.84 1010.31 1010.72 1011.08 1011.38 1011.63 1011.87 1012.11 1012.38 1012.69 1013.03 1013.41
1003.53 1004.29 1005.11 1005.90 1006.57 1007.06 1007.34 1007.39 1007.25 1006.94 1006.53 1006.09 1005.68 1005.35 1005.12 1005.03 1005.06 1005.18 1005.36 1005.57 1005.77 1005.95 1006.10 1006.23 1006.37 1006.54 1006.76 1007.06 1007.45 1007.90 1008.40 1008.92 1009.41 1009.86 1010.24 1010.55 1010.80 1011.01 1011.21 1011.43 1011.69 1012.00 1012.36 1012.77
1003.24 1004.03 1004.86 1005.64 1006.27 1006.69 1006.87 1006.82 1006.57 1006.20 1005.78 1005.39 1005.10 1004.95 1004.96 1005.11 1005.37 1005.68 1006.00 1006.27 1006.46 1006.57 1006.61 1006.60 1006.60 1006.64 1006.77 1007.00 1007.34 1007.77 1008.26 1008.76 1009.23 1009.64 1009.98 1010.23 1010.41 1010.56 1010.71 1010.89 1011.13 1011.43 1011.80 1012.20
1003.28 1004.02 1004.81 1005.52 1006.07 1006.39 1006.47 1006.32 1006.00 1005.60 1005.20 1004.89 1004.74 1004.78 1005.00 1005.39 1005.86 1006.36 1006.81 1007.15 1007.37 1007.44 1007.40 1007.30 1007.19 1007.14 1007.18 1007.35 1007.64 1008.03 1008.49 1008.96 1009.40 1009.76 1010.03 1010.21 1010.33 1010.40 1010.49 1010.62 1010.82 1011.09 1011.43 1011.82
1003.75 1004.38 1005.03 1005.62 1006.03 1006.22 1006.18 1005.94 1005.55 1005.13 1004.77 1004.55 1004.53 1004.73 1005.15 1005.74 1006.41 1007.07 1007.66 1008.09 1008.35 1008.43 1008.37 1008.22 1008.06 1007.95 1007.95 1008.07 1008.32 1008.68 1009.11 1009.53 1009.92 1010.22 1010.42 1010.54 1010.58 1010.58 1010.60 1010.66 1010.80 1011.02 1011.31 1011.66
1004.60 1005.06 1005.54 1005.93 1006.15 1006.18 1006.00 1005.64 1005.20 1004.76 1004.43 1004.28 1004.37 1004.72 1005.30 1006.06 1006.89 1007.70 1008.41 1008.95 1009.28 1009.41 1009.38 1009.25 1009.09 1008.98 1008.96 1009.06 1009.30 1009.63 1010.01 1010.40 1010.73 1010.97 1011.11 1011.15 1011.12 1011.05 1011.00 1010.99 1011.06 1011.22 1011.45 1011.73
1005.70 1005.95 1006.19 1006.35 1006.36 1006.19 1005.85 1005.39 1004.88 1004.43 1004.12 1004.04 1004.22 1004.68 1005.39 1006.27 1007.23 1008.16 1008.98 1009.62 1010.05 1010.27 1010.31 1010.24 1010.14 1010.06 1010.07 1010.18 1010.41 1010.73 1011.08 1011.42 1011.70 1011.89 1011.96 1011.94 1011.85 1011.72 1011.59 1011.52 1011.52 1011.60 1011.76 1011.97
1006.79 1006.81 1006.81 1006.72 1006.50 1006.15 1005.67 1005.11 1004.56 1004.11 1003.83 1003.81 1004.07 1004.62 1005.41 1006.38 1007.43 1008.45 1009.36 1010.10 1010.63 1010.94 1011.09 1011.11 1011.09 1011.09 1011.15 1011.29 1011.53 1011.83 1012.15 1012.45 1012.68 1012.81 1012.83 1012.75 1012.60 1012.42 1012.24 1012.11 1012.05 1012.06 1012.15 1012.29
1007.62 1007.42 1007.19 1006.88 1006.48 1005.97 1005.39 1004.79 1004.23 1003.81 1003.59 1003.63 1003.97 1004.58 1005.43 1006.45 1007.55 1008.63 1009.61 1010.42 1011.03 1011.45 1011.70 1011.83 1011.90 1011.98 1012.10 1012.28 1012.52 1012.80 1013.09 1013.34 1013.51 1013.59 1013.56 1013.44 1013.25 1013.02 1012.80 1012.63 1012.52 1012.48 1012.52 1012.60
1007.99 1007.63 1007.22 1006.76 1006.22 1005.64 1005.03 1004.44 1003.94 1003.60 1003.48 1003.61 1004.02 1004.69 1005.58 1006.63 1007.74 1008.83 1009.84 1010.69 1011.36 1011.85 1012.19 1012.41 1012.57 1012.72 1012.88 1013.08 1013.31 1013.57 1013.81 1014.00 1014.11 1014.13 1014.05 1013.89 1013.67 1013.42 1013.18 1012.99 1012.85 1012.79 1012.79 1012.84
1007.87 1007.40 1006.89 1006.35 1005.78 1005.20 1004.65 1004.16 1003.79 1003.59 1003.60 1003.86 1004.35 1005.08 1005.99 1007.04 1008.13 1009.20 1010.18 1011.03 1011.73 1012.26 1012.65 1012.93 1013.14 1013.33 1013.51 1013.71 1013.91 1014.11 1014.28 1014.40 1014.45 1014.41 1014.28 1014.08 1013.84 1013.58 1013.35 1013.16 1013.03 1012.97 1012.96 1013.01
1007.35 1006.85 1006.33 1005.80 1005.29 1004.81 1004.40 1004.09 1003.91 1003.90 1004.09 1004.48 1005.08 1005.86 1006.78 1007.79 1008.83 1009.84 1010.76 1011.57 1012.24 1012.76 1013.16 1013.46 1013.69 1013.87 1014.04 1014.20 1014.35 1014.48 1014.57 1014.60 1014.57 1014.46 1014.29 1014.07 1013.82 1013.58 1013.36 1013.20 1013.10 1013.07 1013.09 1013.16
Thickness
5820 5808 5802 5814 5824 5822 5819 5813 5809 5814 5828 5818 5808 5803 5802 5803 5794 5785 5776 5769 5762 5759 5760 5759 5756 5754 5751 5748 5747 5747 5745 5744 5743 5741 5740 5738 5738 5740 5740 5738 5735 5734 5733 5733
5804 5802 5821 5833 5832 5826 5819 5809 5808 5817 5827 5818 5808 5804 5807 5803 5797 5790 5781 5773 5767 5762 5759 5756 5754 5751 5749 5746 5746 5745 5743 5742 5741 5740 5739 5739 5739 5740 5740 5738 5735 5734 5733 5733
5798 5815 5835 5830 5823 5817 5815 5809 5809 5810 5820 5822 5806 5791 5794 5800 5802 5795 5790 5783 5776 5768 5760 5756 5753 5751 5749 5747 5746 5745 5743 5741 5740 5739 5739 5739 5738 5737 5737 5735 5734 5734 5734 5733
5811 5828 5830 5824 5819 5818 5807 5823 5820 5814 5801 5790 5789 5767 5786 5794 5793 5792 5790 5785 5780 5774 5767 5759 5754 5751 5750 5749 5748 5746 5743 5741 5739 5739 5738 5736 5733 5732 5735 5736 5735 5735 5734 5733
5808 5823 5822 5816 5821 5824 5818 5829 5821 5808 5788 5770 5772 5756 5773 5793 5786 5789 5792 5790 5785 5779 5772 5763 5759 5755 5754 5752 5749 5746 5742 5739 5738 5738 5738 5737 5736 5737 5739 5738 5736 5735 5734 5734
5816 5833 5832 5828 5834 5834 5831 5821 5814 5801 5772 5741 5758 5752 5766 5787 5789 5794 5796 5794 5789 5783 5777 5769 5764 5759 5754 5753 5751 5747 5741 5738 5738 5738 5739 5737 5737 5738 5737 5736 5734 5734 5735 5734
5799 5814 5829 5833 5819 5825 5821 5796 5773 5761 5748 5745 5771 5761 5774 5799 5806 5805 5799 5795 5792 5787 5779 5771 5764 5758 5753 5752 5750 5747 5742 5738 5738 5738 5739 5738 5738 5738 5737 5737 5736 5736 5736 5735
5785 5787 5812 5820 5814 5806 5809 5799 5770 5750 5753 5764 5771 5760 5781 5807 5813 5813 5807 5801 5795 5789 5784 5776 5768 5762 5757 5754 5751 5748 5743 5740 5740 5739 5739 5739 5739 5739 5739 5739 5740 5738 5739 5739
5791 5791 5821 5826 5829 5818 5804 5803 5810 5786 5779 5766 5758 5760 5772 5798 5804 5805 5803 5799 5794 5791 5786 5780 5773 5766 5761 5757 5754 5751 5746 5743 5742 5741 5740 5739 5739 5739 5741 5741 5740 5740 5740 5740
5809 5794 5813 5825 5828 5825 5820 5813 5800 5782 5758 5752 5754 5745 5741 5766 5784 5795 5798 5797 5794 5792 5788 5783 5777 5771 5766 5761 5757 5754 5750 5746 5744 5743 5742 5741 5740 5740 5741 5741 5740 5740 5740 5739
5820 5799 5804 5813 5804 5801 5805 5798 5792 5788 5783 5760 5746 5743 5773 5776 5787 5793 5798 5800 5796 5792 5790 5786 5781 5776 5771 5766 5761 5756 5752 5748 5746 5745 5744 5744 5742 5742 5741 5740 5739 5739 5738 5736
5821 5806 5792 5802 5813 5815 5803 5792 5785 5767 5766 5773 5763 5754 5790 5788 5794 5800 5800 5799 5797 5793 5793 5789 5784 5778 5773 5768 5764 5759 5755 5752 5749 5748 5747 5745 5744 5742 5740 5739 5738 5737 5735 5733
5813 5796 5773 5776 5782 5783 5778 5784 5783 5783 5775 5770 5758 5751 5784 5784 5785 5793 5795 5796 5795 5792 5792 5790 5785 5779 5775 5771 5767 5763 5759 5757 5754 5752 5748 5746 5743 5742 5740 5739 5738 5736 5733 5730
5809 5791 5776 5766 5766 5762 5759 5768 5778 5773 5766 5765 5761 5754 5765 5768 5774 5781 5789 5790 5792 5790 5788 5786 5783 5780 5777 5774 5771 5767 5764 5762 5759 5755 5750 5747 5744 5743 5741 5739 5737 5734 5731 5727
5800 5784 5787 5792 5789 5779 5769 5769 5773 5771 5776 5770 5772 5765 5763 5766 5773 5778 5784 5787 5786 5783 5782 5781 5779 5777 5776 5774 5771 5769 5766 5764 5762 5757 5752 5749 5747 5744 5740 5737 5735 5732 5728 5725
5792 5781 5783 5781 5788 5782 5771 5775 5777 5781 5785 5783 5780 5769 5777 5776 5776 5775 5777 5778 5777 5775 5774 5775 5774 5772 5770 5770 5768 5766 5763 5762 5759 5755 5752 5749 5745 5742 5737 5734 5731 5728 5724 5721
5771 5770 5765 5764 5780 5774 5763 5780 5784 5785 5790 5785 5772 5770 5776 5768 5764 5765 5769 5768 5766 5766 5766 5765 5764 5763 5763 5764 5763 5761 5760 5759 5755 5750 5747 5745 5741 5737 5734 5730 5726 5721 5718 5715
5751 5759 5760 5761 5760 5740 5771 5793 5789 5783 5785 5787 5780 5776 5772 5765 5763 5764 5764 5761 5758 5757 5756 5756 5757 5756 5755 5756 5754 5753 5751 5749 5746 5742 5738 5736 5732 5729 5726 5723 5719 5715 5711 5707
5751 5748 5751 5752 5744 5746 5763 5771 5772 5764 5763 5777 5771 5767 5764 5763 5756 5749 5752 5752 5749 5748 5746 5746 5747 5744 5743 5742 5741 5739 5736 5734 5730 5725 5724 5722 5720 5718 5715 5712 5709 5707 5703 5699
5745 5745 5744 5746 5736 5727 5743 5759 5771 5762 5742 5763 5766 5759 5757 5753 5732 5727 5738 5739 5737 5737 5735 5733 5733 5731 5728 5728 5728 5725 5721 5718 5713 5711 5710 5709 5706 5703 5700 5698 5697 5696 5693 5690
5729 5734 5737 5740 5734 5734 5746 5757 5761 5730 5729 5754 5757 5752 5750 5743 5733 5729 5730 5727 5726 5723 5721 5719 5717 5714 5712 5712 5712 5708 5705 5701 5699 5699 5698 5696 5694 5691 5688 5685 5683 5682 5681 5679
5710 5724 5728 5735 5724 5715 5741 5745 5736 5732 5746 5748 5749 5747 5741 5735 5729 5724 5720 5716 5713 5710 5708 5704 5701 5697 5696 5696 5693 5689 5686 5686 5686 5684 5683 5681 5680 5679 5677 5674 5671 5670 5668 5666
5696 5705 5711 5717 5714 5725 5737 5737 5740 5746 5743 5744 5743 5740 5734 5725 5718 5712 5707 5704 5701 5698 5695 5692 5687 5683 5681 5680 5678 5674 5672 5673 5672 5669 5666 5665 5665 5665 5663 5662 5660 5658 5656 5654
5692 5707 5709 5710 5710 5719 5728 5734 5736 5738 5737 5739 5736 5731 5725 5715 5709 5702 5697 5692 5689 5686 5683 5679 5675 5670 5667 5666 5665 5662 5661 5660 5659 5656 5654 5654 5653 5652 5651 5650 5649 5646 5643 5640
5697 5705 5706 5704 5709 5715 5719 5723 5726 5728 5731 5728 5725 5721 5714 5705 5697 5691 5684 5680 5676 5673 5669 5666 5662 5658 5655 5653 5651 5650 5649 5649 5647 5645 5644 5644 5643 5642 5639 5639 5637 5635 5632 5629
5706 5706 5701 5695 5706 5707 5706 5716 5720 5718 5717 5714 5709 5703 5699 5692 5684 5678 5672 5667 5664 5660 5657 5653 5649 5646 5644 5642 5639 5638 5637 5636 5634 5632 5632 5632 5632 5631 5630 5628 5626 5624 5621 5618